Location: Boissi�res
(45.2500°N, 2.3667°E)
Time: 20:58:11
(UTC+00:00)

Tiangong - Pass Details

Date: 04 October 2021
Orbit: 382 x 385 km, 41.5° (Epoch: 18 October)

Event Time Altitude Azimuth Distance (km) Brightness Sun altitude
Exits shadow 04:03:02 35° 156° (SSE) 636 2.2 -19.9°
Drops below altitude 10° 04:05:26 10° 115° (ESE) 1,396 4.6 -19.5°
Sets 04:07:34 0° 107° (ESE) 2,247 6.0 -19.2°
